Regional Weather Roundup
Issued by NWS State College, PA

Home | Current Version | Previous Version | Text Only | Print | Product List | Glossary On
Versions: 1 2 3 4 5 6 7 8 9 10 11 12 13 14 15 16 17 18 19 20 21 22 23 24 25 26 27 28 29 30 31 32 33 34 35 36 37 38 39 40 41 42 43 44 45 46 47 48 49 50
699
ASUS41 KCTP 222203
RWRCTP

REGIONAL WEATHER ROUNDUP
NATIONAL WEATHER SERVICE STATE COLLEGE PA
600 PM EDT SUN OCT 22 2017

Note: "fair" indicates few or no clouds below 12,000 feet with no
significant weather and/or obstructions to visibility.

* = STATION THAT DOES NOT REPORT PRECIPITATION /E.G. RAIN...SNOW...ETC/
    THUNDER OR FOG.

PAZ002>004-007>009-013>016-020>023-029>032-222300-
WESTERN PENNSYLVANIA

CITY           SKY/WX    TMP DP  RH WIND       PRES   REMARKS
ERIE           CLOUDY    73  52  47 SE6       30.14F
MEADVILLE      PTCLDY    71  50  47 CALM      30.18S
FRANKLIN*      PTCLDY    70  51  51 SE6       30.19F
NEW CASTLE     FAIR      71  51  49 CALM      30.18S
BEAVER COUNTY  NOT AVBL
BUTLER*        PTCLDY    72  50  45 CALM      30.19F
PITTSBURGH INT MOCLDY    73  48  41 S3        30.18S
PITTSBURGH     CLOUDY    74  47  38 S3        30.17F
INDIANA*       CLEAR     70  52  52 SE7       30.24F
LATROBE        CLOUDY    72  52  49 SE12      30.20F
WASHINGTON CO* MOCLDY    73  47  39 SE3       30.20F
$$

PAZ004>006-010>012-017>019-024>028-033>037-041-042-045-046-049>053-222300-
CENTRAL PENNSYLVANIA

CITY           SKY/WX    TMP DP  RH WIND       PRES   REMARKS
BRADFORD       PTCLDY    67  50  54 SE7G16    30.25S
DUBOIS         CLOUDY    69  48  47 SE6       30.22F
CLEARFIELD     CLOUDY    69  52  54 SE6       30.25S
JOHNSTOWN      CLOUDY    65  52  62 SE9       30.26S
ALTOONA        CLEAR     69  54  58 SE12G18   30.28S
STATE COLLEGE  CLEAR     70  52  52 S8        30.27S
WILLIAMSPORT   MOCLDY    71  52  50 VRB5      30.27R
SELINSGROVE    PTCLDY    69  49  48 SE5       30.29S
FT INDIANTOWN  NOT AVBL
CAPITAL CITY   PTCLDY    71  43  36 SE13      30.29S
HARRISBURG     PTCLDY    69  47  45 SE9       30.29S
YORK           PTCLDY    68  41  37 SE7       30.30S
$$

PAZ038>040-043-044-047-048-054-055-060>062-067>071-222300-
EASTERN PENNSYLVANIA

CITY           SKY/WX    TMP DP  RH WIND       PRES   REMARKS
SCRANTON       CLOUDY    71  43  36 S5        30.31S
MOUNT POCONO   CLOUDY    62  41  46 S6        30.36S
ALLENTOWN      CLEAR     70  43  37 S7        30.33S
QUAKERTOWN*    CLEAR     68  46  45 SE3       30.34F
READING        PTCLDY    69  43  38 S9        30.32R
LANCASTER      PTCLDY    68  51  54 SE5       30.31F
COATESVILLE    PTCLDY    66  41  39 SE3       30.35S
POTTSTOWN      CLEAR     67  47  48 CALM      30.34F
BLUE BELL      CLEAR     64  46  52 CALM      30.35S
DOYLESTOWN     CLEAR     68  47  46 CALM      30.33F
WILLOW GROVE   NOT AVBL
NORTH PHILA    CLEAR     72  48  42 SE6       30.35S
PHILADELPHIA   MOCLDY    70  49  47 SE8       30.33S
$$




USA.gov is the U.S. government's official web portal to all federal, state and local government web resources and services.